Voltar ao catálogo

STARLINK-11370

AtivoComunicaçõesVLEO
NORAD 61584·PAYLOAD·🇺🇸 United States

Lançado Oct 18, 2024 de Cape Canaveral Space Force Station

Loading…

Próximas Passagens (próximas 24 horas)

TLE

AtualizadoSource: CelesTrak SupGP

Época: Sep 15, 2026, 03:11 UTC

1 61584C 24187L   26258.13312500  .00008313  00000+0  68442-4 0  2584
2 61584  53.1564  82.5544 0000968  83.3758 215.9282 15.69719192    15

Acompanhe STARLINK-11370 em tempo real com AllMySat

Download on the App Store